Hourly Weather Dzierszyn

Today, 12 May, Wednesday

Time Temperature Precipitation Wind Pressure Humidity
00:00 +13°C° 0 mm 4 mps 736 mmHg 86%
01:00 +13°C° 0 mm 3 mps 736 mmHg 90%
02:00 +12°C° 0 mm 3 mps 736 mmHg 91%
03:00 +12°C° 0 mm 3 mps 736 mmHg 92%
04:00 +12°C° 0 mm 2 mps 736 mmHg 93%
05:00 +13°C° 0 mm 3 mps 736 mmHg 89%
06:00 +14°C° 0 mm 4 mps 736 mmHg 85%
07:00 +17°C° 0 mm 4 mps 736 mmHg 81%
08:00 +18°C° 0 mm 4 mps 736 mmHg 77%
09:00 +20°C° 0 mm 5 mps 735 mmHg 73%
10:00 +22°C° 0 mm 5 mps 735 mmHg 69%
11:00 +22°C° 0 mm 6 mps 735 mmHg 66%
12:00 +23°C° 0 mm 7 mps 735 mmHg 64%
13:00 +23°C° 0 mm 7 mps 735 mmHg 61%
14:00 +23°C° 0 mm 7 mps 734 mmHg 62%
15:00 +23°C° 0 mm 7 mps 734 mmHg 63%
16:00 +22°C° 0 mm 7 mps 734 mmHg 64%
17:00 +20°C° 0 mm 7 mps 734 mmHg 70%
18:00 +17°C° 0 mm 8 mps 734 mmHg 75%
19:00 +15°C° 0 mm 8 mps 734 mmHg 81%
20:00 +14°C° 0 mm 7 mps 734 mmHg 81%
21:00 +12°C° 0 mm 7 mps 734 mmHg 80%
22:00 +11°C° 0 mm 6 mps 734 mmHg 80%
23:00 +10°C° 0 mm 6 mps 733 mmHg 80%

Tomorrow, 13 May, Thursday

Time Temperature Precipitation Wind Pressure Humidity
00:00 +9°C° 0 mm 5 mps 733 mmHg 80%
01:00 +9°C° 0 mm 5 mps 733 mmHg 80%
02:00 +8°C° 0 mm 4 mps 732 mmHg 83%
03:00 +8°C° 0 mm 3 mps 732 mmHg 87%
04:00 +7°C° 0 mm 3 mps 732 mmHg 91%
05:00 +8°C° 0 mm 3 mps 732 mmHg 88%
06:00 +9°C° 0 mm 3 mps 731 mmHg 85%
07:00 +10°C° 0 mm 4 mps 731 mmHg 82%
08:00 +11°C° 0 mm 3 mps 731 mmHg 80%
09:00 +13°C° 0 mm 2 mps 731 mmHg 79%
10:00 +14°C° 0 mm 2 mps 731 mmHg 78%
11:00 +14°C° 0 mm 2 mps 730 mmHg 78%
12:00 +15°C° 0 mm 2 mps 730 mmHg 78%
13:00 +15°C° 0 mm 2 mps 730 mmHg 79%
14:00 +15°C° 0.1 mm 2 mps 730 mmHg 82%
15:00 +13°C° 0.1 mm 3 mps 730 mmHg 86%
16:00 +12°C° 0.1 mm 4 mps 730 mmHg 90%
17:00 +12°C° 0.1 mm 4 mps 730 mmHg 90%
18:00 +12°C° 0.1 mm 4 mps 730 mmHg 91%
19:00 +11°C° 0.1 mm 4 mps 730 mmHg 91%
20:00 +11°C° 0.3 mm 4 mps 730 mmHg 92%
21:00 +11°C° 0.3 mm 4 mps 730 mmHg 93%
22:00 +11°C° 0.3 mm 4 mps 730 mmHg 94%
23:00 +9°C° 0.6 mm 5 mps 730 mmHg 95%

Day after tomorrow, 14 May, Friday

Time Temperature Precipitation Wind Pressure Humidity
00:00 +9°C° 0.6 mm 5 mps 730 mmHg 95%
01:00 +9°C° 0.6 mm 6 mps 731 mmHg 95%
02:00 +9°C° 0.9 mm 6 mps 731 mmHg 95%
03:00 +9°C° 0.9 mm 6 mps 731 mmHg 95%
04:00 +8°C° 0.9 mm 6 mps 731 mmHg 95%
05:00 +8°C° 1 mm 5 mps 732 mmHg 95%
06:00 +8°C° 1 mm 5 mps 732 mmHg 95%
07:00 +8°C° 1 mm 5 mps 733 mmHg 94%
08:00 +8°C° 0.2 mm 5 mps 733 mmHg 93%
09:00 +8°C° 0.2 mm 5 mps 734 mmHg 92%
10:00 +8°C° 0.2 mm 5 mps 734 mmHg 91%
11:00 +9°C° 0 mm 5 mps 735 mmHg 87%
12:00 +11°C° 0 mm 4 mps 735 mmHg 83%
13:00 +12°C° 0 mm 4 mps 735 mmHg 79%
14:00 +13°C° 0.1 mm 4 mps 735 mmHg 76%
15:00 +13°C° 0.1 mm 4 mps 735 mmHg 73%
16:00 +14°C° 0.1 mm 3 mps 735 mmHg 70%
17:00 +14°C° 0 mm 2 mps 735 mmHg 74%
18:00 +13°C° 0 mm 1 mps 735 mmHg 78%
19:00 +12°C° 0 mm 1 mps 735 mmHg 83%
20:00 +11°C° 0 mm 1 mps 736 mmHg 84%
21:00 +11°C° 0 mm 1 mps 736 mmHg 86%
22:00 +10°C° 0 mm 1 mps 736 mmHg 87%
23:00 +10°C° 0 mm 1 mps 736 mmHg 88%

15 May, Saturday

Time Temperature Precipitation Wind Pressure Humidity
00:00 +9°C° 0 mm 1 mps 736 mmHg 89%
01:00 +9°C° 0 mm 1 mps 736 mmHg 90%
02:00 +9°C° 0 mm 1 mps 736 mmHg 90%
03:00 +9°C° 0 mm 1 mps 736 mmHg 90%
04:00 +8°C° 0 mm 1 mps 736 mmHg 90%
05:00 +10°C° 0 mm 1 mps 736 mmHg 86%
06:00 +12°C° 0 mm 1 mps 737 mmHg 81%
07:00 +14°C° 0 mm 1 mps 737 mmHg 77%
08:00 +15°C° 0 mm 1 mps 737 mmHg 72%
09:00 +16°C° 0 mm 1 mps 737 mmHg 67%
10:00 +19°C° 0 mm 1 mps 737 mmHg 63%
11:00 +19°C° 0.5 mm 1 mps 736 mmHg 65%
12:00 +18°C° 0.5 mm 1 mps 736 mmHg 67%
13:00 +17°C° 0.5 mm 2 mps 736 mmHg 69%
14:00 +17°C° 0.8 mm 2 mps 736 mmHg 73%
15:00 +16°C° 0.8 mm 2 mps 736 mmHg 77%
16:00 +16°C° 0.8 mm 2 mps 736 mmHg 80%
17:00 +15°C° 0.5 mm 2 mps 736 mmHg 85%
18:00 +14°C° 0.5 mm 2 mps 735 mmHg 89%
19:00 +12°C° 0.5 mm 3 mps 735 mmHg 93%
20:00 +11°C° 0.2 mm 3 mps 735 mmHg 93%
21:00 +12°C° 0.2 mm 2 mps 735 mmHg 94%
22:00 +10°C° 0.2 mm 2 mps 735 mmHg 95%
23:00 +10°C° 0 mm 2 mps 735 mmHg 95%

16 May, Sunday

Time Temperature Precipitation Wind Pressure Humidity
00:00 +9°C° 0 mm 2 mps 735 mmHg 95%
01:00 +10°C° 0 mm 1 mps 735 mmHg 96%
02:00 +10°C° 0 mm 1 mps 735 mmHg 96%
03:00 +10°C° 0 mm 1 mps 735 mmHg 96%
04:00 +9°C° 0 mm 1 mps 735 mmHg 96%
05:00 +11°C° 0 mm 1 mps 735 mmHg 93%
06:00 +12°C° 0 mm 1 mps 735 mmHg 91%
07:00 +14°C° 0 mm 1 mps 736 mmHg 88%
08:00 +15°C° 0 mm 2 mps 735 mmHg 85%
09:00 +16°C° 0 mm 2 mps 735 mmHg 82%
10:00 +16°C° 0 mm 2 mps 735 mmHg 79%
11:00 +16°C° 0.7 mm 2 mps 735 mmHg 80%
12:00 +16°C° 0.7 mm 2 mps 735 mmHg 81%
13:00 +16°C° 0.7 mm 2 mps 735 mmHg 82%
14:00 +16°C° 1 mm 2 mps 735 mmHg 84%
15:00 +16°C° 1 mm 2 mps 734 mmHg 86%
16:00 +14°C° 1 mm 3 mps 734 mmHg 88%
17:00 +15°C° 1.2 mm 2 mps 734 mmHg 91%
18:00 +14°C° 1.2 mm 2 mps 734 mmHg 93%
19:00 +13°C° 1.2 mm 1 mps 734 mmHg 96%
20:00 +13°C° 0.4 mm 2 mps 735 mmHg 96%
21:00 +13°C° 0.4 mm 2 mps 735 mmHg 97%
22:00 +12°C° 0.4 mm 3 mps 735 mmHg 97%
23:00 +11°C° 0 mm 3 mps 735 mmHg 96%

17 May, Monday

Time Temperature Precipitation Wind Pressure Humidity
00:00 +11°C° 0 mm 4 mps 735 mmHg 96%
01:00 +11°C° 0 mm 4 mps 735 mmHg 95%
02:00 +10°C° 0 mm 4 mps 735 mmHg 95%
03:00 +10°C° 0 mm 4 mps 735 mmHg 95%
04:00 +8°C° 0 mm 4 mps 735 mmHg 95%
05:00 +9°C° 0 mm 5 mps 735 mmHg 92%
06:00 +10°C° 0 mm 5 mps 736 mmHg 88%
07:00 +12°C° 0 mm 5 mps 736 mmHg 85%
08:00 +13°C° 0 mm 5 mps 736 mmHg 78%
09:00 +15°C° 0 mm 5 mps 736 mmHg 72%
10:00 +16°C° 0 mm 5 mps 736 mmHg 65%
11:00 +16°C° 0.1 mm 5 mps 736 mmHg 65%
12:00 +16°C° 0.1 mm 5 mps 736 mmHg 65%
13:00 +17°C° 0.1 mm 4 mps 736 mmHg 64%
14:00 +17°C° 0 mm 4 mps 736 mmHg 62%
15:00 +18°C° 0 mm 4 mps 736 mmHg 59%
16:00 +18°C° 0 mm 4 mps 736 mmHg 57%
17:00 +17°C° 0 mm 3 mps 736 mmHg 62%
18:00 +15°C° 0 mm 2 mps 736 mmHg 68%
19:00 +14°C° 0 mm 1 mps 736 mmHg 74%
20:00 +13°C° 0 mm 1 mps 736 mmHg 76%
21:00 +12°C° 0 mm 1 mps 736 mmHg 78%
22:00 +11°C° 0 mm 1 mps 737 mmHg 81%
23:00 +11°C° 0 mm 1 mps 737 mmHg 82%
Show more

We Need Your Consent

Meteoprog and our Service Providers may store and access personal data such as cookies, device identifiers or other similar technologies on your device and process such data to personalise content and ads, as well as provide social media features and to analyse the traffic.

  • Store and/or access information on your device

    Cookies, device identifiers or other information can be stored or accessed on your device for the purposes indicated above.

  • Personalised ads and content, ad and content measurement, audience insights, and products development

    Ads and content can be personalised based on a profile. More data can be added to better personalise ads and content. Ad and content performance can be measured. Insights about the audience who saw the ads and content can be derived. Such data can be used to develop or improve user’s experience, systems and software.

By clicking ‘I Agree’ you will allow the use of indicated cookies, device identifiers, web beacons or other similar technologies. Your settings can be changed in the browser on your device.

For certain purposes, legitimate interests may be relied on, rather than consent. You can read more about this in our Privacy and Cookie Policy.